Probability
0 0 0 0 0 0 0 0 0 0 0 0 0 0 0 0 0 0 0 0 0 0 0 0 0 0 0 0 0 0 0 0 0 0 0 1 1 1
0 0 0 0 0 0 0 0 0 0 0 0 0 0 0 0 0 0 0 0 0 0 0 0 0 0 0 0 0 0 0 0 0 0 0 0 0 0
0 0 0 0 0 0 0 0 0 0 0 0 0 0 0 0 0 0 0 0 0 0 0 0 0 0 0 0 0 0 0 0 0 0 0 0 0 0
0 0 0 0 0 0 0 0 0 0 0 0 0 0 0 0 0 0 0 0 0 0 0 0 0 0 0 0 0 0 0 0 0 0 0 0 0 0
0 0 0 0 0 0 0 0 0 0 0 0 0 0 0 0 0 0 0 0 0 0 0 0 0 0 0 0 0 0 0 0 0 0 0 0 0 0
0 0 0 0 0 0 0 0 0 0 0 0 0 0 0 0 0 0 0 0 0 0 0 0 0 0 0 0 0 0 0 0 0 0 0 0 0 0
0 0 0 0 0 0 0 0 0 0 0 0 0 0 0 0 0 0 0 0 0 0 0 0 0 0 0 0 0 0 0 0 0 0 0 0 0 0
0 0 0 0 0 0 0 0 0 0 0 0 0 0 0 0 0 0 0 0 0 0 0 0 0 0 0 0 0 0 0 0 0 0 0 0 0 0
0 0 0 0 0 0 0 0 0 0 0 0 0 0 0 0 0 0 0 0 0 0 0 0 0 0 0 0 0 0 0 0 0 0 0 0 0 0
0 0 0 0 0 0 0 0 0 0 0 0 0 0 0 0 0 0 0 0 0 0 0 0 0 0 0 0 0 0 0 0 0 0 0 0 0 0
0 0 0 0 0 0 0 0 0 0 0 0 0 0 0 0 0 0 0 0 0 0 0 0 0 0 0 0 0 0 0 0 0 0 0 0 0 0
0 0 0 0 0 0 0 0 0 0 0 0 0 0 0 0 0 0 0 0 0 0 0 0 0 0 0 0 0 0 0 0 0 0 0 0 0 0
0 0 0 0 0 0 0 0 0 0 0 0 0 0 0 0 0 0 0 0 0 0 0 0 0 0 0 0 0 0 0 0 0 0 0 0 0 0
0 0 0 0 0 0 0 0 0 0 0 0 0 0 0 0 0 0 0 0 0 0 0 0 0 0 0 0 0 0 0 0 0 0 0 0 0 0
0 0 0 0 0 0 0 0 0 0 0 0 0 0 0 0 0 0 0 0 0 0 0 0 0 0 0 0 0 0 0 0 0 0 0 0 0 0
0 0 0 0 0 0 0 0 0 0 0 0 0 0 0 0 0 0 0 0 0 0 0 0 0 0 0 0 0 0 0 0 0 0 0 0 0 0
0 0 0 0 0 0 0 0 0 0 0 0 0 0 0 0 0 0 0 0 0 0 0 0 0 0 0 0 0 0 0 0 0 0 0 0 0 0
0 0 0 0 0 0 0 0 0 0 0 0 0 0 0 0 0 0 0 0 0 0 0 0 0 0 0 0 0 0 0 0 0 0 0 0 0 0
0 0 0 0 0 0 0 0 0 0 0 0 0 0 0 0 0 0 0 0 0 0 0 0 0 0 0 0 0 0 0 0 0 0 0 0 0 0
0 0 0 0 0 0 0 0 0 0 0 0 0 0 0 0 0 0 0 0 0 0 0 0 0 0 0 0 0 0 0 0 0 0 0 0 0 0
0 0 0 0 0 0 0 0 0 0 0 0 0 0 0 0 0 0 0 0 0 0 0 0 0 0 0 0 0 0 0 0 0 0 0 0 0 0
0 0 0 0 0 0 0 0 0 0 0 0 0 0 0 0 0 0 0 0 0 0 0 0 0 0 0 0 0 0 0 0 0 0 0 0 0 0
0 0 0 0 0 0 0 0 0 0 0 0 0 0 0 0 0 0 0 0 0 0 0 0 0 0 0 0 0 0 0 0 0 0 0 0 0 0
Wind_Speed
4 5 4 3 3 2 2 2 3 2 2 4 3 4 4 3 7 5 5 11 12 13 13 13 13 13 13 13 13 12 12 12 12 11 10 8 7 6
3 5 5 3 3 3 3 2 2 3 1 2 2 3 4 5 9 6 6 12 13 13 13 13 12 12 12 13 13 13 12 12 12 11 11 9 8 8
4 5 5 4 4 3 3 3 3 2 2 1 2 3 4 5 5 5 5 5 6 13 13 13 12 12 12 12 12 12 12 12 12 11 11 10 9 9
4 4 4 4 4 3 3 3 3 2 2 1 3 3 4 4 4 5 5 6 4 10 12 13 12 12 12 12 12 12 12 12 11 11 11 11 10 10
3 3 3 4 4 3 3 3 2 3 2 2 2 2 2 3 4 4 4 4 5 7 9 11 11 11 11 11 11 11 11 11 11 11 11 11 11 11
3 3 2 2 2 2 3 3 3 3 3 2 2 2 2 3 3 3 4 4 4 5 6 7 9 10 10 10 10 10 10 10 10 10 10 10 10 11
3 2 2 3 3 3 2 2 3 2 2 2 2 2 2 3 3 2 3 3 3 3 4 4 4 4 5 7 8 9 9 9 9 9 9 9 10 11
2 2 2 3 4 5 5 5 4 3 2 1 1 1 2 2 2 2 2 3 3 3 3 4 3 4 4 3 6 8 9 9 9 9 9 10 10 11
2 1 2 2 3 2 4 6 5 4 3 2 2 1 1 2 1 2 1 1 2 3 2 3 3 3 4 4 8 7 7 8 9 10 10 11 11 11
1 1 1 1 2 3 3 3 3 3 2 1 1 1 2 2 2 1 1 2 3 3 1 2 3 3 4 4 7 7 7 8 10 11 12 12 11 11
1 1 1 1 1 3 3 2 2 3 3 3 2 2 3 2 1 1 1 2 2 3 1 1 2 3 3 3 4 7 7 8 10 12 12 11 11 11
1 0 0 1 1 3 3 2 1 2 2 3 4 5 4 4 4 1 1 0 1 3 2 2 2 3 4 2 2 3 4 7 10 11 11 11 11 8
1 1 1 1 2 3 3 2 2 1 0 1 2 3 3 3 3 1 1 1 1 2 2 1 2 2 2 4 4 3 3 4 5 6 9 11 12 9
3 2 2 2 2 2 2 1 1 1 1 1 1 2 2 3 3 2 2 2 3 4 4 1 2 2 3 4 5 4 4 5 5 5 5 9 10 12
3 4 3 2 2 1 1 1 1 1 1 0 1 2 2 3 3 2 2 2 3 3 3 2 3 3 3 4 5 5 6 6 4 5 6 7 7 7
2 1 1 1 1 1 1 1 0 1 1 2 2 2 2 2 2 2 2 2 2 4 3 3 4 4 4 5 6 7 7 6 6 7 7 8 7 7
3 1 1 0 0 1 1 1 1 0 1 1 1 2 2 2 2 2 1 1 2 3 5 4 3 4 5 6 6 7 7 7 7 8 8 10 9 8
5 2 2 2 2 2 2 2 1 2 2 2 2 2 2 3 3 2 1 2 3 4 5 5 4 5 4 5 7 7 6 7 8 8 7 10 12 10
4 3 3 3 3 3 3 3 3 3 2 2 2 3 3 3 3 3 3 3 4 5 5 4 4 4 7 9 5 5 7 8 8 8 8 9 12 12
3 4 4 4 3 3 3 3 3 2 2 2 3 3 3 3 3 3 4 4 5 5 5 4 4 4 6 9 9 7 8 8 8 10 10 10 10 12
4 4 4 4 4 4 4 3 3 3 3 3 3 3 3 3 4 4 4 6 5 5 6 6 6 8 6 5 8 8 6 8 10 10 11 11 12 11
4 4 4 4 4 4 4 3 3 3 3 3 4 4 3 3 4 5 5 5 5 6 7 7 6 4 4 6 10 11 11 9 9 13 14 14 11 12
5 4 4 4 4 4 3 4 4 4 4 4 4 4 4 4 4 4 5 5 5 6 7 6 5 4 5 7 9 10 13 13 10 9 9 13 18 22
Wind_Direction
62 64 62 46 50 58 85 113 129 96 3 338 344 346 353 9 16 19 21 32 35 35 36 37 37 37 38 37 36 35 32 30 29 29 29 33 32 26
61 65 58 43 47 49 59 61 87 128 112 330 330 329 346 13 20 19 26 33 33 34 35 35 36 37 37 37 35 32 30 27 25 23 21 21 23 16
57 68 61 52 56 46 52 58 57 86 107 337 334 338 3 9 1 8 21 27 22 31 34 35 36 37 36 35 33 30 27 25 23 20 17 13 13 8
64 68 60 64 59 49 56 59 56 62 104 65 350 351 358 353 355 6 13 18 14 26 31 32 34 36 34 32 28 26 24 23 20 18 15 13 13 7
77 78 70 75 64 54 59 60 51 54 67 89 7 342 341 350 355 359 5 359 4 18 24 25 25 27 27 26 24 23 22 20 18 16 14 14 11 6
71 77 81 93 102 90 73 68 68 62 57 63 33 356 345 336 7 2 356 355 354 0 8 10 11 15 14 15 18 19 17 15 13 13 12 10 7 2
66 54 60 85 95 97 94 93 85 75 64 57 31 6 352 356 353 335 345 329 332 354 343 348 353 355 356 359 6 10 12 11 9 9 8 4 359 355
96 60 49 54 64 73 81 91 101 104 108 98 55 5 319 312 314 337 345 357 334 338 351 329 351 341 332 335 349 360 4 4 3 359 357 354 350 346
117 90 64 58 63 70 66 61 50 53 92 143 152 232 256 260 282 328 335 320 282 300 342 313 330 328 319 333 342 352 357 357 355 350 346 342 340 338
133 141 124 58 67 96 86 62 34 17 21 79 163 240 251 244 213 225 247 287 289 293 319 296 317 311 316 319 327 339 344 345 345 342 338 336 335 332
120 123 139 145 117 108 98 78 26 353 6 35 35 1 343 346 33 63 11 8 329 312 338 304 308 308 304 302 315 329 332 331 331 330 330 330 329 327
96 23 166 172 160 130 123 119 45 314 342 359 4 359 360 359 9 69 171 152 304 306 316 324 311 330 319 300 306 318 322 320 321 320 320 320 321 320
163 218 259 228 186 165 151 163 217 222 329 349 343 342 347 350 346 349 187 177 202 264 288 306 302 313 290 304 308 303 305 311 318 314 314 315 314 312
184 206 222 207 187 184 181 203 204 118 85 20 352 333 328 322 317 316 294 251 233 248 275 254 253 267 285 295 296 299 303 302 302 301 304 311 310 307
193 198 196 193 192 213 247 221 165 126 111 352 296 287 283 288 305 317 316 304 291 280 279 251 248 265 255 273 288 293 306 303 294 300 306 306 304 306
186 189 181 172 169 218 309 325 251 191 189 233 263 278 300 317 317 314 316 326 323 310 298 279 263 256 270 271 279 291 295 294 301 303 303 300 298 294
151 110 91 83 283 294 298 294 291 305 262 261 268 289 299 306 303 303 299 310 297 302 309 309 291 270 261 275 284 284 290 292 295 303 307 304 300 296
144 157 199 211 223 235 246 264 262 252 249 248 258 263 274 282 291 297 282 280 287 291 294 301 313 317 306 275 246 273 286 291 298 300 298 300 301 299
161 193 212 222 229 233 232 231 242 247 237 237 250 259 264 271 277 286 288 286 285 284 287 295 304 310 310 307 287 243 279 295 299 300 297 294 295 297
192 208 219 225 227 228 229 231 240 247 238 242 248 255 255 258 268 275 276 275 281 287 292 291 282 277 281 291 295 290 270 279 293 297 299 296 289 284
209 217 221 221 224 225 228 228 231 238 240 240 246 251 252 250 260 267 271 279 279 282 285 284 276 276 275 283 288 289 282 264 268 283 295 299 301 300
214 217 221 219 219 221 223 223 228 237 242 244 248 250 249 247 257 265 269 274 274 273 277 283 291 293 277 278 288 295 298 296 280 273 272 274 286 294
216 216 218 218 218 216 216 222 229 239 239 243 247 249 250 253 258 262 269 272 277 281 286 291 294 284 278 278 286 292 297 301 302 301 292 282 279 281